• Currently

    Reported at Minneapolis, Minneapolis-St. Paul International Airport, MN
    6:53 PM CST WED APR 26 2017
  • 39°F4°C
  • Drizzle
    Drizzle
  • Feels Like:33°F0°CDew Point:32°F0°CHumidity:75% Winds:N 12 mph 19 kph
    Pressure:29.56 in1001 hPaVisibility:10.00 miles16090.00 meters
Time Weather Temp Dew Point
Humidity Winds Visibility Pressure Precipitation
1 hr 24 hr
Wednesday, April 19
23:53 23:53 Cloudy Cloudy 48°F9°C 41°F5°C 77% N 9 mphN 15 kph 10.0 miles16.1 km 30 in1016 hPa 0.00 in0.00 mm --
23:46 23:46 Cloudy Cloudy 48°F9°C 41°F5°C 76% N 9 mphN 15 kph 10.0 miles16.1 km 30 in1016 hPa 0.00 in0.00 mm --
23:31 23:31 Cloudy Cloudy 48°F9°C 41°F5°C 77% NNW 13 mphNNW 20 kph 10.0 miles16.1 km 30 in1016 hPa 0.00 in0.00 mm --
22:53 22:53 Cloudy Cloudy 49°F9°C 45°F7°C 86% WNW 9 mphWNW 15 kph 9.0 miles14.5 km 30 in1016 hPa 0.00 in0.00 mm --
22:02 22:02 Cloudy Cloudy 50°F10°C 43°F6°C 76% WNW 9 mphWNW 15 kph 10.0 miles16.1 km 29.97 in1015 hPa 0.00 in0.00 mm --
21:53 21:53 Cloudy Cloudy 50°F10°C 43°F6°C 77% WNW 10 mphWNW 17 kph 10.0 miles16.1 km 29.97 in1015 hPa 0.00 in0.03 mm --
21:31 21:31 Cloudy Cloudy 50°F10°C 43°F6°C 77% WNW 9 mphWNW 15 kph 10.0 miles16.1 km 29.94 in1014 hPa 0.00 in0.03 mm --
21:06 21:06 Cloudy Cloudy 50°F10°C 43°F6°C 76% W 13 mphW 20 kph 10.0 miles16.1 km 29.94 in1014 hPa 0.00 in0.00 mm --
20:53 20:53 Cloudy Cloudy 51°F11°C 43°F6°C 74% W 12 mphW 19 kph 10.0 miles16.1 km 29.94 in1014 hPa 0.00 in0.00 mm --
19:53 19:53 Cloudy Cloudy 52°F11°C 44°F7°C 75% W 14 mphW 22 kph 10.0 miles16.1 km 29.91 in1013 hPa 0.00 in0.00 mm --
18:53 18:53 Cloudy Cloudy 54°F12°C 45°F7°C 72% WNW 14 mphWNW 22 kph 10.0 miles16.1 km 29.88 in1012 hPa 0.00 in0.00 mm --
17:53 17:53 Cloudy Cloudy 54°F12°C 45°F7°C 72% WNW 15 mphWNW 24 kph 10.0 miles16.1 km 29.88 in1012 hPa 0.00 in0.00 mm --
16:53 16:53 Cloudy Cloudy 54°F12°C 46°F8°C 75% W 20 mphW 31 kph 10.0 miles16.1 km 29.85 in1011 hPa 0.00 in0.00 mm --
15:53 15:53 Cloudy Cloudy 56°F13°C 46°F8°C 70% W 21 mphW 33 kph 10.0 miles16.1 km 29.8 in1009 hPa 0.00 in0.00 mm --
15:33 15:33 Cloudy Cloudy 57°F14°C 46°F8°C 67% W 23 mphW 37 kph 10.0 miles16.1 km 29.8 in1009 hPa 0.00 in0.00 mm --
14:53 14:53 Cloudy Cloudy 60°F16°C 46°F8°C 60% WSW 21 mphWSW 33 kph 10.0 miles16.1 km 29.77 in1008 hPa 0.00 in0.00 mm --
13:53 13:53 Mostly Cloudy Mostly Cloudy 65°F18°C 50°F10°C 59% WSW 20 mphWSW 31 kph 10.0 miles16.1 km 29.74 in1007 hPa 0.00 in0.00 mm --
13:21 13:21 Cloudy Cloudy 63°F17°C 53°F12°C 70% SW 17 mphSW 28 kph 10.0 miles16.1 km 29.74 in1007 hPa 0.00 in0.00 mm --
12:53 12:53 Cloudy Cloudy 60°F16°C 52°F11°C 75% SSW 18 mphSSW 30 kph 10.0 miles16.1 km 29.74 in1007 hPa 0.00 in0.00 mm --
11:53 11:53 Cloudy Cloudy 59°F15°C 51°F11°C 75% SSW 17 mphSSW 28 kph 10.0 miles16.1 km 29.77 in1008 hPa 0.02 in12.90 mm --
11:00 11:00 Cloudy With Light Rain Cloudy With Light Rain 56°F13°C 50°F10°C 81% S 22 mphS 35 kph 8.0 miles12.9 km 29.77 in1008 hPa 0.01 in6.45 mm --
10:53 10:53 Cloudy With Light Rain Cloudy With Light Rain 56°F13°C 50°F10°C 81% S 22 mphS 35 kph 3.0 miles4.8 km 29.77 in1008 hPa 0.04 in25.81 mm --
09:53 09:53 Cloudy With Light Rain Cloudy With Light Rain 55°F13°C 48°F9°C 77% S 15 mphS 24 kph 9.0 miles14.5 km 29.8 in1009 hPa 0.02 in12.90 mm --
08:53 08:53 Cloudy With Light Rain Cloudy With Light Rain 53°F12°C 46°F8°C 77% SSE 15 mphSSE 24 kph 9.0 miles14.5 km 29.83 in1010 hPa 0.07 in45.16 mm --
08:43 08:43 Cloudy With Rain Cloudy With Rain 52°F11°C 46°F8°C 80% SE 14 mphSE 22 kph 9.0 miles14.5 km 29.85 in1011 hPa 0.06 in38.71 mm --
07:53 07:53 Cloudy With Light Rain Cloudy With Light Rain 53°F12°C 43°F6°C 69% SE 13 mphSE 20 kph 8.0 miles12.9 km 29.91 in1013 hPa 0.00 in0.03 mm --
07:13 07:13 Cloudy Cloudy 53°F12°C 41°F5°C 64% SSE 7 mphSSE 11 kph 10.0 miles16.1 km 29.91 in1013 hPa 0.00 in0.00 mm --
06:53 06:53 Cloudy Cloudy 52°F11°C 40°F4°C 64% SE 16 mphSE 26 kph 10.0 miles16.1 km 29.85 in1011 hPa 0.00 in0.00 mm --
05:53 05:53 Cloudy Cloudy 52°F11°C 40°F4°C 64% SE 17 mphSE 28 kph 10.0 miles16.1 km 29.91 in1013 hPa 0.00 in0.00 mm --
04:53 04:53 Cloudy Cloudy 51°F11°C 39°F4°C 64% SE 17 mphSE 28 kph 10.0 miles16.1 km 29.94 in1014 hPa 0.00 in0.00 mm --
03:53 03:53 Cloudy Cloudy 51°F11°C 36°F2°C 56% SSE 15 mphSSE 24 kph 10.0 miles16.1 km 29.97 in1015 hPa 0.00 in0.00 mm --
02:53 02:53 Cloudy Cloudy 52°F11°C 34°F1°C 50% SE 15 mphSE 24 kph 10.0 miles16.1 km 30 in1016 hPa 0.00 in0.00 mm --
01:53 01:53 Cloudy Cloudy 51°F11°C 32°F0°C 48% ESE 14 mphESE 22 kph 10.0 miles16.1 km 30.03 in1017 hPa 0.00 in0.00 mm --
00:53 00:53 Cloudy Cloudy 51°F11°C 31°F-1°C 46% ESE 8 mphESE 13 kph 10.0 miles16.1 km 30.06 in1018 hPa 0.00 in0.00 mm --